Regional Weather Roundup
Issued by NWS Midland/Odessa, TX

Skip options and go directly to product.
Home | Oldest Version | Previous Version | Current Version | All | Text Only | Save Text | Print | Product List | Glossary On

Skip product version selection by date and time.   
334
ASUS44 KMAF 241201
RWRMAF
MIDLAND AREA WEATHER ROUNDUP
NATIONAL WEATHER SERVICE MIDLAND TX
700 AM CDT WED AUG 24 2016

...IN SOUTHWEST TEXAS AND SOUTHEAST NEW MEXICO...

CITY           SKY/WX    TMP DP  RH WIND       PRES   REMARKS
ALPINE         CLOUDY    66  62  88 N10       30.27R
ANDREWS        NOT AVBL
ARTESIA        CLOUDY    64  64 100 S15       30.14S
BIG SPRING     PTCLDY    70  65  84 SE6       30.14R
CARLSBAD       MOCLDY    63  62  97 S12       30.14R
DRYDEN           N/A     71  66  84 VRB6      30.08R
FORT STOCKTON  CLOUDY    68  62  81 N14       30.17R
GUAD PASS      NOT AVBL
HOBBS          LGT RAIN  63  63 100 NE9       30.17F
MARFA          PTCLDY   N/A N/A N/A CALM      30.23F
MIDLAND AIRPK  CLOUDY    72  64  76 W21G26    30.18R
MIDLAND INTL   LGT RAIN  69  65  86 NW16G30   30.16R
ODESSA         TSTM      66  62  87 N17G25    30.17R
PECOS          MOCLDY    64  62  91 CALM      30.15S
PRESIDIO       NOT AVBL
SEMINOLE       RAIN      64  62  90 NW9       30.18S
SNYDER           N/A     70  65  84 S6        30.11S
WINK           CLOUDY    64  62  93 SE12      30.15R
$$
...OTHER STATIONS IN TEXAS...

CITY           SKY/WX    TMP DP  RH WIND       PRES   REMARKS
ABILENE        CLEAR     71  67  87 S9        30.10R
AMARILLO       CLOUDY    68  63  84 S10       30.11S
AUSTIN         PTCLDY    76  75  97 S9        30.10S
BROWNSVILLE    CLEAR     76  75  97 SE5       30.09S
CORPUS CHRISTI PTCLDY    77  76  96 SE3       30.07F
DALLAS FTW     PTCLDY    75  70  84 S9        30.07S
DEL RIO        CLEAR     74  71  91 SE6       30.05R
EL PASO        CLOUDY    69  64  84 SE9       30.12R
HOUSTON INT    PTCLDY    76  75  97 CALM      30.10F
LUBBOCK        CLOUDY    66  63  90 W6        30.12R
SAN ANGELO     PTCLDY    73  68  84 S5        30.09R
SAN ANTONIO    MOCLDY    76  73  91 S10       30.11S
WACO           CLOUDY    76  74  93 S12       30.09S
WICHITA FALLS  NOT AVBL
$$
...OTHER LOCATIONS IN NEW MEXICO...

CITY           SKY/WX    TMP DP  RH WIND       PRES   REMARKS
ALAMAGORDO     PTCLDY    64  57  77 SW9       30.14R
ALBUQUERQUE    PTCLDY    60  51  72 CALM      30.21R
CANNON AFB     CLOUDY    67  55  64 SW13      30.16R
CLOVIS         CLOUDY    64  54  68 S14G21    30.16R
HOLLOMAN AFB   CLOUDY    69  57  67 S13       30.12R
ROSWELL        CLOUDY    64  61  90 S14       30.15R
RUIDOSO          N/A     55  48  76 S6        30.31R
SANTA FE       CLEAR     49  47  93 N6        30.25R
TRUTH OR CONSE CLEAR     61  48  62 W8        30.17R
TUCUMCARI      CLOUDY    67  56  67 SW8       30.12S
$$

USA.gov is the U.S. government's official web portal to all federal, state and local government web resources and services.